FW1241 Weather Reports


Display with metric or nautical units.
time (UTC)temp
F
wind
direction
speed
MPH
gust
MPH
rain 1hr
in
rain 24hr
in
rain mn
in
humidity
%
barometer
mb
20260504081605 59 183 0.0 3.0 0.00 0.00 0.00 64 1013.6
20260504080605 60 185 1.0 3.0 0.00 0.00 0.00 64 1013.6
20260504080105 60 186 0.0 3.0 0.00 0.00 0.00 63 1013.5
20260504060105 62 177 1.0 5.0 0.00 0.00 0.00 58 1012.7
20260504044605 63 99 1.0 3.0 0.00 0.00 0.00 54 1012.0
20260504041604 64 105 0.0 1.0 0.00 0.00 0.00 53 1011.3
20260504040605 64 93 0.0 2.0 0.00 0.00 0.00 52 1011.0
20260504034605 65 301 1.0 3.0 0.00 0.00 0.00 50 1010.6
20260504034105 66 92 1.0 6.0 0.00 0.00 0.00 48 1010.3
20260504033604 66 4 1.0 3.0 0.00 0.00 0.00 48 1010.2
20260504033105 66 316 1.0 3.0 0.00 0.00 0.00 48 1009.9
20260504032104 67 27 0.0 2.0 0.00 0.00 0.00 45 1009.8
20260504030605 68 314 1.0 3.0 0.00 0.00 0.00 43 1009.6
20260504030105 69 308 1.0 3.0 0.00 0.00 0.00 43 1009.5
20260504024605 70 122 1.0 3.0 0.00 0.00 0.00 43 1009.2
20260504024105 70 1 1.0 3.0 0.00 0.00 0.00 42 1009.1
20260504023605 71 329 1.0 3.0 0.00 0.00 0.00 43 1009.0
20260504022605 72 342 1.0 3.0 0.00 0.00 0.00 42 1008.7
20260504022105 73 9 0.0 2.0 0.00 0.00 0.00 44 1008.6
20260504021104 74 358 0.0 1.0 0.00 0.00 0.00 45 1008.5
20260504020605 75 336 0.0 1.0 0.00 0.00 0.00 46 1008.5
20260504013104 77 324 0.0 0.0 0.00 0.00 0.00 44 1008.3
20260504011605 78 301 0.0 1.0 0.00 0.00 0.00 43 1008.4
20260504011105 77 301 0.0 1.0 0.00 0.00 0.00 44 1008.4
20260504010105 77 138 0.0 2.0 0.00 0.00 0.00 44 1008.4
20260504005604 77 340 0.0 3.0 0.00 0.00 0.00 43 1008.3
20260504005104 77 307 0.0 1.0 0.00 0.00 0.00 46 1008.3
20260504004605 77 297 1.0 3.0 0.00 0.00 0.00 44 1008.4
20260504003105 76 302 0.0 1.0 0.00 0.00 0.00 45 1008.3
20260504002604 77 312 1.0 3.0 0.00 0.00 0.00 44 1008.2
20260504002105 77 294 0.0 3.0 0.00 0.00 0.00 44 1008.3
20260504001104 77 270 1.0 3.0 0.00 0.00 0.00 44 1008.4
20260504000604 77 292 0.0 3.0 0.00 0.00 0.00 46 1008.4
20260503233105 76 164 0.0 0.0 0.00 0.00 0.00 46 1008.9
20260503231604 77 290 1.0 3.0 0.00 0.00 0.00 45 1008.8
20260503225104 75 300 1.0 3.0 0.00 0.00 0.00 47 1009.1
20260503224605 77 343 1.0 3.0 0.00 0.00 0.00 45 1009.2
20260503223604 77 296 1.0 3.0 0.00 0.00 0.00 44 1009.3
20260503223105 76 301 0.0 1.0 0.00 0.00 0.00 47 1009.3
20260503222104 76 302 2.0 3.0 0.00 0.00 0.00 46 1009.4
20260503221105 77 174 0.0 3.0 0.00 0.00 0.00 47 1009.4
20260503220105 75 295 1.0 3.0 0.00 0.00 0.00 46 1009.5
20260503215605 75 163 1.0 3.0 0.00 0.00 0.00 51 1009.6
20260503214604 74 279 0.0 3.0 0.00 0.00 0.00 49 1009.7
20260503213604 76 290 1.0 3.0 0.00 0.00 0.00 47 1009.8
20260503212605 76 292 0.0 2.0 0.00 0.00 0.00 49 1009.8
20260503211105 75 138 0.0 2.0 0.00 0.00 0.00 53 1009.8
20260503210605 75 304 1.0 3.0 0.00 0.00 0.00 52 1009.8
20260503210105 75 302 1.0 3.0 0.00 0.00 0.00 52 1009.9
20260503205104 73 164 0.0 2.0 0.00 0.00 0.00 54 1010.0
20260503203604 72 315 0.0 1.0 0.00 0.00 0.00 56 1010.2
20260503202605 72 317 1.0 3.0 0.00 0.00 0.00 56 1010.4
20260503202105 72 316 2.0 3.0 0.00 0.00 0.00 57 1010.5
20260503201105 72 254 0.0 3.0 0.00 0.00 0.00 59 1010.6
20260503200605 71 302 0.0 2.0 0.00 0.00 0.00 59 1010.6
20260503200105 71 215 0.0 1.0 0.00 0.00 0.00 61 1010.7
20260503195605 71 358 1.0 3.0 0.00 0.00 0.00 60 1010.9
20260503194605 71 311 2.0 3.0 0.00 0.00 0.00 60 1011.1
20260503194105 70 298 0.0 3.0 0.00 0.00 0.00 62 1011.1
20260503193105 70 312 0.0 1.0 0.00 0.00 0.00 62 1011.3
20260503191605 68 302 1.0 2.0 0.00 0.00 0.00 64 1011.6
20260503191104 69 336 0.0 2.0 0.00 0.00 0.00 64 1011.7
20260503190605 69 62 0.0 1.0 0.00 0.00 0.00 65 1011.7
20260503185605 68 305 0.0 1.0 0.00 0.00 0.00 64 1011.8
20260503184604 68 319 1.0 3.0 0.00 0.00 0.00 66 1011.9
20260503183105 68 311 1.0 1.0 0.00 0.00 0.00 67 1011.8
20260503182605 68 310 1.0 3.0 0.00 0.00 0.00 66 1011.9
20260503181605 68 143 1.0 2.0 0.00 0.00 0.00 67 1011.9
20260503180604 67 105 0.0 0.0 0.00 0.00 0.00 69 1012.0
20260503174604 65 175 0.0 1.0 0.00 0.00 0.00 73 1012.1
20260503174105 65 215 0.0 1.0 0.00 0.00 0.00 74 1012.0
20260503171104 63 99 0.0 0.0 0.00 0.00 0.00 77 1012.1
20260503170605 63 99 0.0 1.0 0.00 0.00 0.00 77 1012.0
20260503150605 59 297 0.0 1.0 0.00 0.00 0.00 84 1010.9
20260503150104 58 172 0.0 2.0 0.00 0.00 0.00 85 1010.8
20260503140104 55 163 0.0 0.0 0.00 0.00 0.00 92 1010.2
20260503131105 55 114 0.0 1.0 0.00 0.00 0.00 91 1009.2
20260503120105 56 159 0.0 0.0 0.00 0.00 0.00 90 1008.6
20260503110104 59 163 0.0 0.0 0.00 0.00 0.00 89 1008.6